Tracking 20942 objects as of 13-Jul-2020
HD Live streaming from Space Station
objects crossing your sky now

SIRIO

Track SIRIO now!
SIRIO is classified as:


NORAD ID: 10294
Int'l Code: 1977-080A
Perigee: 35,755.3 km
Apogee: 35,832.8 km
Inclination: 11.9 °
Period: 1,436.1 minutes
Semi major axis: 42165 km
RCS: 0.14 m2 (medium)
Launch date: August 25, 1977
Source: Italy (IT)
Launch site: AIR FORCE EASTERN TEST RANGE (AFETR)
aabbcc
Your satellite tracking list
Your tracking list is empty




NASA's NSSDC Master Catalog

Two Line Element Set (TLE):
1 10294U 77080A   20193.90452167 -.00000099 +00000-0 +00000-0 0  9996
2 10294 011.8759 319.6834 0009185 097.1933 273.9191 01.00270659096207
Source of the keplerian elements: AFSPC